Weather History for Hollister Municipal Airport, CA

Change the Weather History Date:

Tuesday, January 14, 2014

  Actual Average (KSNS) Record (KSNS)
Temperature  
Mean Temperature 54 °F 51 °F  
Max Temperature 75 °F 61 °F 79 °F (2009)
Min Temperature 33 °F 41 °F 25 °F (2007)
Degree Days  
Heating Degree Days 11 14  
Month to date heating degree days 196  
Since 1 July heating degree days 1249  
Cooling Degree Days 0 0  
Month to date cooling degree days 0  
Year to date cooling degree days 0  
Growing Degree Days 4 (Base 50)    
Moisture  
Dew Point 30 °F    
Average Humidity 47    
Maximum Humidity 75    
Minimum Humidity 17    
Precipitation  
Precipitation 0.00 in 0.08 in 1.04 in (1960)
Month to date precipitation 1.15  
Year to date precipitation 1.15  
Since 1 July precipitation 5.26  
Sea Level Pressure  
Sea Level Pressure 30.38 in    
Wind  
Wind Speed 2 mph (NE)    
Max Wind Speed 14 mph    
Max Gust Speed -    
Visibility 10 miles    
Events      
T = Trace of Precipitation, MM = Missing Value Source: NWS Daily Summary

Daily Weather History Graph

Daily Weather History Graph

Search for Another Location

Airport:

Trip Planner

Search our weather history database for the weather conditions in past years. The results will help you decide how hot, cold, wet, or windy it might be!

Date:

Astronomy

Jan. 14, 2014 Rise Set
Actual Time 7:17 AM PST 5:11 PM PST
Civil Twilight 6:49 AM PST 5:40 PM PST
Nautical Twilight 6:17 AM PST 6:12 PM PST
Astronomical Twilight 5:46 AM PST 6:43 PM PST
Moon 4:20 PM PST (1/14) 5:57 AM PST (1/14)
Length of Visible Light 10h 50m
Length of Day
9h 54m
Waxing Gibbous, 98% of the Moon is Illuminated
Jan 14
Waxing Gibbous
Jan 15
Full
Jan 23
Last Quarter
Jan 30
New
Feb 6
First Quarter

Hourly Weather History & Observations

Time (PST) Temp. Windchill Dew Point Humidity Pressure Visibility Wind Dir Wind Speed Gust Speed Precip Events Conditions
12:10 AM 39.2 °F - 28.4 °F 65% 30.40 in 10.0 mi Calm Calm - N/A   Clear
12:30 AM 37.4 °F - 26.6 °F 65% 30.39 in 10.0 mi Calm Calm - N/A   Clear
12:50 AM 37.4 °F - 26.6 °F 65% 30.40 in 10.0 mi Calm Calm - N/A   Clear
1:10 AM 39.2 °F - 28.4 °F 65% 30.40 in 10.0 mi Calm Calm - N/A   Clear
1:30 AM 37.4 °F - 26.6 °F 65% 30.40 in 10.0 mi Calm Calm - N/A   Clear
1:50 AM 37.4 °F 33.8 °F 28.4 °F 70% 30.40 in 10.0 mi SSE 4.6 mph - N/A   Clear
2:10 AM 35.6 °F - 26.6 °F 70% 30.40 in 10.0 mi Calm Calm - N/A   Clear
2:30 AM 35.6 °F - 26.6 °F 70% 30.40 in 10.0 mi Calm Calm - N/A   Clear
2:50 AM 35.6 °F - 26.6 °F 70% 30.40 in 10.0 mi Calm Calm - N/A   Clear
3:10 AM 35.6 °F 31.7 °F 26.6 °F 70% 30.41 in 10.0 mi SSE 4.6 mph - N/A   Partly Cloudy
3:30 AM 33.8 °F - 23.0 °F 65% 30.40 in 10.0 mi Calm Calm - N/A   Clear
3:50 AM 33.8 °F - 26.6 °F 75% 30.40 in 10.0 mi Calm Calm - N/A   Clear
4:10 AM 33.8 °F - 24.8 °F 70% 30.40 in 10.0 mi Calm Calm - N/A   Clear
4:30 AM 35.6 °F - 26.6 °F 70% 30.40 in 10.0 mi Calm Calm - N/A   Clear
4:50 AM 33.8 °F - 23.0 °F 65% 30.40 in 10.0 mi Calm Calm - N/A   Clear
5:10 AM 35.6 °F - 26.6 °F 70% 30.40 in 10.0 mi Calm Calm - N/A   Clear
5:30 AM 33.8 °F - 23.0 °F 65% 30.41 in 10.0 mi Calm Calm - N/A   Clear
5:50 AM 33.8 °F - 26.6 °F 75% 30.41 in 10.0 mi Calm Calm - N/A   Clear
6:10 AM 35.6 °F - 26.6 °F 70% 30.41 in 10.0 mi Calm Calm - N/A   Clear
6:30 AM 35.6 °F - 26.6 °F 70% 30.42 in 10.0 mi Calm Calm - N/A   Clear
6:50 AM 35.6 °F - 26.6 °F 70% 30.42 in 10.0 mi Calm Calm - N/A   Clear
7:10 AM 33.8 °F 30.8 °F 24.8 °F 70% 30.43 in 10.0 mi SSE 3.5 mph - N/A   Clear
7:30 AM 33.8 °F - 24.8 °F 70% 30.43 in 10.0 mi Calm Calm - N/A   Clear
7:50 AM 35.6 °F - 26.6 °F 70% 30.44 in 10.0 mi Calm Calm - N/A   Clear
8:10 AM 37.4 °F - 26.6 °F 65% 30.45 in 10.0 mi Calm Calm - N/A   Clear
8:30 AM 42.8 °F - 28.4 °F 57% 30.46 in 10.0 mi Calm Calm - N/A   Clear
8:50 AM 46.4 °F - 28.4 °F 50% 30.45 in 10.0 mi Calm Calm - N/A   Clear
9:10 AM 50.0 °F - 32.0 °F 50% 30.46 in 10.0 mi SE 5.8 mph - N/A   Clear
9:30 AM 51.8 °F - 33.8 °F 50% 30.45 in 10.0 mi Calm Calm - N/A   Clear
9:50 AM 55.4 °F - 32.0 °F 41% 30.46 in 10.0 mi Calm Calm - N/A   Clear
10:10 AM 57.2 °F - 33.8 °F 41% 30.45 in 10.0 mi Calm Calm - N/A   Clear
10:30 AM 57.2 °F - 35.6 °F 44% 30.45 in 10.0 mi Calm Calm - N/A   Clear
10:50 AM 60.8 °F - 35.6 °F 39% 30.44 in 10.0 mi Calm Calm - N/A   Clear
11:10 AM 64.4 °F - 35.6 °F 34% 30.44 in 10.0 mi Calm Calm - N/A   Clear
11:30 AM 64.4 °F - 32.0 °F 30% 30.42 in 10.0 mi Calm Calm - N/A   Clear
11:50 AM 66.2 °F - 32.0 °F 28% 30.41 in 10.0 mi Calm Calm - N/A   Clear
12:10 PM 69.8 °F - 32.0 °F 25% 30.39 in 10.0 mi Calm Calm - N/A   Clear
12:30 PM 71.6 °F - 32.0 °F 23% 30.37 in 10.0 mi Calm Calm - N/A   Clear
12:50 PM 71.6 °F - 33.8 °F 25% 30.36 in 10.0 mi Calm Calm - N/A   Clear
1:10 PM 73.4 °F - 28.4 °F 19% 30.35 in 10.0 mi NE 8.1 mph - N/A   Clear
1:30 PM 75.2 °F - 28.4 °F 18% 30.34 in 10.0 mi NE 10.4 mph - N/A   Clear
1:50 PM 75.2 °F - 26.6 °F 17% 30.33 in 10.0 mi NE 9.2 mph - N/A   Clear
2:10 PM 75.2 °F - 26.6 °F 17% 30.32 in 10.0 mi NNE 11.5 mph - N/A   Clear
2:30 PM 75.2 °F - 26.6 °F 17% 30.32 in 10.0 mi NNE 11.5 mph - N/A   Clear
2:50 PM 75.2 °F - 26.6 °F 17% 30.32 in 10.0 mi NNE 12.7 mph - N/A   Clear
3:10 PM 75.2 °F - 26.6 °F 17% 30.32 in 10.0 mi NNE 13.8 mph - N/A   Clear
3:30 PM 73.4 °F - 30.2 °F 20% 30.32 in 10.0 mi North 8.1 mph - N/A   Clear
3:50 PM 73.4 °F - 32.0 °F 22% 30.33 in 10.0 mi NNW 11.5 mph - N/A   Clear
4:10 PM 71.6 °F - 32.0 °F 23% 30.32 in 10.0 mi North 12.7 mph - N/A   Clear
4:30 PM 69.8 °F - 32.0 °F 25% 30.32 in 10.0 mi North 13.8 mph - N/A   Clear
4:50 PM 68.0 °F - 32.0 °F 26% 30.32 in 10.0 mi North 12.7 mph - N/A   Clear
5:10 PM 64.4 °F - 32.0 °F 30% 30.33 in 10.0 mi North 10.4 mph - N/A   Clear
5:30 PM 62.6 °F - 32.0 °F 32% 30.33 in 10.0 mi NNW 11.5 mph - N/A   Clear
5:50 PM 60.8 °F - 33.8 °F 36% 30.33 in 10.0 mi North 4.6 mph - N/A   Clear
6:10 PM 60.8 °F - 32.0 °F 34% 30.34 in 10.0 mi North 10.4 mph - N/A   Clear
6:30 PM 60.8 °F - 32.0 °F 34% 30.34 in 10.0 mi NE 6.9 mph - N/A   Clear
6:50 PM 59.0 °F - 32.0 °F 36% 30.34 in 10.0 mi NE 5.8 mph - N/A   Clear
7:10 PM 57.2 °F - 33.8 °F 41% 30.34 in 10.0 mi NE 9.2 mph - N/A   Clear
7:30 PM 57.2 °F - 32.0 °F 38% 30.34 in 10.0 mi ENE 5.8 mph - N/A   Clear
7:50 PM 55.4 °F - 32.0 °F 41% 30.34 in 10.0 mi Calm Calm - N/A   Clear
8:10 PM 53.6 °F - 32.0 °F 44% 30.34 in 10.0 mi Calm Calm - N/A   Clear
8:30 PM 53.6 °F - 32.0 °F 44% 30.35 in 10.0 mi ENE 5.8 mph - N/A   Clear
8:50 PM 51.8 °F - 32.0 °F 47% 30.34 in 10.0 mi Calm Calm - N/A   Clear
9:10 PM 51.8 °F - 32.0 °F 47% 30.34 in 10.0 mi ENE 8.1 mph - N/A   Clear
9:30 PM 51.8 °F - 32.0 °F 47% 30.34 in 10.0 mi ENE 11.5 mph - N/A   Clear
9:50 PM 51.8 °F - 32.0 °F 47% 30.33 in 10.0 mi NNE 12.7 mph - N/A   Clear
10:10 PM 48.2 °F - 32.0 °F 54% 30.34 in 10.0 mi ENE 5.8 mph - N/A   Clear
10:30 PM 46.4 °F 44.3 °F 28.4 °F 50% 30.34 in 10.0 mi East 4.6 mph - N/A   Clear
10:50 PM 48.2 °F - 32.0 °F 54% 30.33 in 10.0 mi Calm Calm - N/A   Clear
11:10 PM 48.2 °F - 32.0 °F 54% 30.33 in 10.0 mi Calm Calm - N/A   Clear
11:30 PM 48.2 °F - 30.2 °F 50% 30.33 in 10.0 mi Calm Calm - N/A   Clear
11:50 PM 48.2 °F - 30.2 °F 50% 30.33 in 10.0 mi Calm Calm - N/A   Clear